Tracking 34719 objects as of 12-Jul-2026
HD Live streaming from Space Station
objects crossing your sky now

QIANFAN-175

Track QIANFAN-175 now!
10-day predictions
QIANFAN-175 is classified as:


NORAD ID: 69392
Int'l Code: 2026-124L
Perigee: 890.2 km
Apogee: 895.2 km
Inclination: 89.0 °
Period: 102.7 minutes
Semi major axis: 7263 km
RCS: Unknown
Launch date: June 4, 2026
Source: People's Republic of China (PRC)
Launch site: Taiyaun Space Center, China (TSC)
Your satellite tracking list
Your tracking list is empty




NASA's NSSDC Master Catalog

Two Line Element Set (TLE):
1 69392U 26124L   26191.87292610 -.02050027  00000-0 -14402+1 0  9997
2 69392  88.9993 359.3490 0003424  46.5570 313.5895 14.02375695  5179
Source of the keplerian elements: AFSPC